Temperature
20 20 20 20 20 20 20 21 21 21 21 21 21 20 19 18 17 16 16 16 15 15 15 15 15 15 14 14 14 14 14 14 14 14 14 14 14 14 14 14 14 14 14 14
19 19 19 19 19 20 19 20 20 20 20 20 20 19 18 18 17 16 16 15 15 15 15 14 15 14 14 14 14 14 14 14 14 14 14 14 13 13 13 13 13 13 13 13
19 19 19 19 19 19 19 19 19 19 20 19 19 18 18 17 16 16 15 15 15 15 15 14 14 14 14 14 13 13 13 13 13 13 13 13 13 13 13 13 13 13 13 13
18 18 18 19 19 18 18 18 19 18 18 18 17 17 16 16 16 15 15 15 15 15 14 14 14 14 14 13 13 13 13 13 13 13 13 13 13 13 13 13 13 13 13 13
17 18 18 18 18 17 18 18 18 18 17 17 16 16 17 16 15 15 14 14 14 14 14 14 14 14 13 13 13 13 13 13 13 13 13 13 12 12 12 13 13 13 13 13
17 17 17 18 17 16 17 17 17 17 16 16 16 17 18 15 14 14 14 14 14 14 14 14 14 14 13 13 13 13 13 12 12 12 12 12 12 12 12 12 12 12 12 12
16 16 17 17 16 16 17 17 16 16 15 15 16 16 15 14 14 14 13 13 14 14 14 14 14 13 13 13 13 13 12 12 12 12 12 12 12 12 12 12 12 12 12 12
16 16 16 15 15 16 17 15 15 15 14 14 14 14 13 13 13 13 13 13 13 13 13 13 13 13 13 13 13 12 12 12 12 12 12 12 12 12 11 11 11 11 12 12
16 16 15 14 14 14 14 14 14 14 13 13 13 13 13 13 13 13 13 13 13 13 13 13 13 13 13 13 13 12 12 12 12 11 11 11 11 11 11 11 11 11 11 11
15 15 14 13 13 12 12 13 12 12 12 12 12 12 12 12 12 12 12 12 12 12 12 12 12 12 12 12 12 12 12 12 12 11 11 11 11 11 11 11 11 11 10 11
14 14 13 13 12 12 12 12 12 12 12 12 12 12 12 12 12 12 12 12 12 12 12 12 12 12 12 12 12 12 11 11 11 11 11 11 11 11 11 11 11 11 10 10
14 14 14 13 12 11 11 11 11 11 11 11 11 11 11 11 11 11 11 11 11 11 11 11 11 11 11 11 11 11 11 11 11 11 10 10 10 10 10 10 10 10 10 10
12 12 12 11 11 11 11 11 10 10 11 11 11 11 11 11 11 10 11 11 11 11 11 11 11 11 11 11 11 11 11 11 11 10 10 10 10 10 10 10 10 10 10 10
11 10 10 10 10 10 10 10 10 10 10 10 10 10 10 10 10 10 10 10 10 10 10 10 10 10 10 11 11 10 10 10 10 10 10 10 10 9 9 9 9 9 9 9
10 10 10 10 10 10 10 10 10 10 10 10 10 10 10 10 10 10 10 10 10 10 10 10 10 10 10 10 10 10 10 10 10 9 10 9 9 9 9 9 9 9 9 9
10 10 9 9 9 9 9 9 9 9 9 9 9 9 9 9 9 9 9 9 9 9 9 10 9 9 9 9 10 9 9 9 9 9 9 9 9 9 9 9 8 8 8 8
9 9 9 9 9 9 9 9 9 9 9 9 9 9 9 9 9 9 9 9 9 9 9 9 9 9 9 9 9 9 9 9 9 9 9 9 9 8 8 8 8 8 8 8
9 8 8 8 8 8 8 8 8 8 8 8 8 8 8 8 8 8 8 8 9 9 9 9 9 9 9 9 9 8 8 8 8 8 8 8 8 8 8 8 8 8 7 7
8 8 8 8 8 8 8 8 8 8 8 8 8 8 8 8 8 8 8 8 8 8 8 8 8 8 8 8 8 8 8 8 8 8 8 8 8 8 8 7 7 7 7 7
8 8 8 8 7 7 7 7 7 7 7 7 7 7 7 7 7 7 7 7 7 7 8 8 8 8 8 8 8 8 8 8 8 8 8 7 7 7 7 7 7 7 6 6
7 7 7 7 7 7 7 7 7 7 7 7 7 7 7 7 6 7 7 7 7 7 7 7 7 7 7 7 7 7 7 7 7 7 7 7 7 7 7 7 7 6 6 6
7 7 7 6 6 6 6 6 6 6 6 6 6 6 6 6 6 6 6 6 6 6 6 6 6 7 7 7 6 6 7 7 7 7 6 6 6 6 6 6 6 6 6 6
6 6 6 6 6 6 6 6 6 6 6 6 6 6 5 5 5 5 5 5 6 6 6 6 6 6 6 6 6 6 6 6 6 6 6 6 6 6 6 6 6 6 6 5
6 6 6 6 5 5 5 5 5 5 5 5 5 5 5 5 5 5 5 5 5 5 5 5 5 5 5 5 5 5 5 5 5 5 5 5 5 5 5 5 5 5 5 5
5 5 5 5 5 5 5 5 5 5 5 5 5 5 5 5 5 4 4 4 5 5 5 5 5 5 5 5 5 5 5 5 5 5 5 5 5 5 5 5 5 5 5 5
5 5 4 4 5 4 4 4 4 4 4 4 4 4 4 4 4 4 4 4 4 4 4 4 4 4 4 4 4 4 4 4 4 4 4 4 4 4 4 4 4 4 4 4
4 4 4 4 4 4 4 4 4 4 4 4 4 4 4 4 4 4 4 4 4 3 3 3 3 3 3 3 4 4 4 4 4 4 4 4 4 4 4 4 4 4 4 4
Wind_Speed
11 8 8 10 11 11 14 14 13 12 10 9 7 5 4 3 2 2 2 3 3 3 3 4 5 5 5 5 5 6 6 6 5 4 4 3 3 3 3 3 2 2 2 3
10 8 9 12 12 13 14 13 14 13 11 8 6 5 4 4 3 3 3 3 3 3 3 4 5 5 6 5 5 6 6 6 5 4 4 4 4 4 4 3 3 3 3 3
10 7 9 12 10 10 9 9 10 12 9 5 6 5 5 4 4 4 4 3 3 4 4 4 5 5 5 5 5 6 6 6 5 5 5 4 4 4 4 4 3 3 3 2
8 8 10 3 1 3 6 7 7 6 6 6 6 6 5 4 4 4 4 4 4 4 4 4 5 5 5 5 6 6 6 6 6 6 5 5 4 4 4 4 3 3 3 3
6 9 10 5 3 3 6 6 4 5 5 5 4 4 4 2 2 3 4 4 5 4 4 5 5 6 6 6 6 6 6 6 6 6 6 6 5 5 4 3 3 3 3 4
7 8 8 2 0 2 5 6 1 2 4 3 2 5 4 3 4 5 4 4 4 4 4 5 5 6 7 7 6 7 7 6 6 6 6 6 6 5 4 4 4 3 3 4
11 10 7 2 1 2 6 2 1 3 3 4 5 5 6 6 5 5 5 5 4 5 5 5 5 6 7 7 7 6 6 6 6 6 6 6 5 5 5 4 4 4 3 3
7 9 6 1 2 3 5 5 5 5 5 6 6 6 6 6 5 5 5 4 4 5 5 5 6 7 7 7 6 5 6 6 6 6 6 5 5 5 5 5 4 4 4 4
5 4 2 0 3 4 5 6 6 6 6 6 7 7 7 7 6 5 4 4 4 4 5 5 6 7 7 6 5 5 6 6 6 7 6 6 6 6 5 5 5 5 4 4
7 7 6 5 5 5 5 7 8 8 7 7 7 7 7 6 5 5 4 4 3 4 4 5 5 6 7 6 6 6 7 7 6 6 6 6 5 5 5 5 6 6 5 5
9 8 7 7 6 6 7 8 8 8 7 7 7 7 6 6 5 5 4 4 3 4 4 5 5 5 6 6 6 7 7 7 7 7 6 6 6 5 6 6 6 6 6 5
8 7 7 8 7 7 8 8 8 8 8 7 7 7 7 6 6 5 5 4 4 4 5 5 5 5 6 6 7 7 7 7 6 6 6 6 5 4 3 4 4 5 5 6
11 10 10 10 10 9 9 9 8 8 8 8 7 7 6 6 5 5 5 5 5 5 5 5 4 5 5 6 7 8 7 7 6 6 6 6 6 6 5 3 4 6 6 6
9 9 10 10 10 10 9 9 9 8 8 7 7 6 6 6 5 5 5 5 5 5 4 4 4 4 4 5 6 7 7 6 6 6 6 6 6 6 6 5 5 4 5 6
10 10 11 10 9 9 8 8 8 8 7 6 6 5 5 6 6 5 5 4 4 4 4 4 4 4 4 4 6 6 6 5 6 6 6 6 6 6 6 6 6 5 4 4
8 8 9 10 10 9 9 9 9 8 7 6 6 6 6 6 5 5 4 4 4 4 4 4 4 4 4 4 5 5 5 5 5 5 5 6 6 6 6 6 6 5 5 4
9 9 9 9 9 8 8 8 8 8 7 6 6 6 5 5 5 4 4 4 4 4 4 4 4 4 4 4 5 4 4 5 6 5 5 6 6 6 6 5 5 5 5 5
9 9 9 9 8 8 8 7 7 6 6 6 6 5 5 5 5 5 4 3 3 4 4 4 4 4 4 4 4 4 4 4 5 5 5 6 6 6 6 6 6 6 5 5
6 6 7 7 7 7 7 6 6 6 6 5 5 5 5 6 5 5 4 3 3 4 4 4 3 4 4 4 4 4 4 5 5 5 5 5 5 5 6 6 6 6 5 5
4 4 4 5 5 6 6 5 5 5 4 4 4 5 5 5 4 4 3 3 3 4 4 3 3 4 4 3 3 4 4 5 5 5 5 5 6 6 6 6 6 6 5 5
3 3 4 4 5 5 5 4 4 4 4 4 4 4 4 4 4 4 3 3 4 4 4 3 3 3 3 2 3 4 4 5 5 5 5 5 6 6 6 6 5 5 5 5
4 4 4 4 4 4 4 4 4 4 3 3 4 4 4 4 4 4 4 4 4 3 3 3 3 3 3 3 3 3 4 4 5 5 5 5 5 5 6 6 5 5 5 5
5 5 4 4 5 4 4 4 3 3 3 4 4 4 3 3 3 3 4 4 3 3 3 3 3 3 3 3 2 3 3 4 4 5 5 5 5 5 5 5 5 5 5 5
5 5 5 4 4 4 4 4 3 3 3 3 3 3 3 3 3 3 4 3 3 3 3 2 2 3 3 2 3 3 3 4 4 4 4 4 4 4 4 4 4 4 5 5
5 5 5 4 4 3 4 4 3 3 3 3 3 3 3 3 3 3 3 3 3 3 3 2 2 3 3 3 3 3 3 3 4 4 4 4 4 4 4 4 5 5 5 5
4 4 4 4 4 3 3 3 3 3 3 3 3 3 3 3 3 3 2 3 3 3 3 2 2 3 3 3 3 3 3 3 3 4 4 4 4 5 5 5 6 5 5 5
4 4 3 3 3 3 3 3 3 3 3 3 3 3 3 3 2 2 3 2 3 3 3 3 3 3 3 3 4 4 3 3 3 3 4 4 4 4 5 6 5 5 5 6
Wind_Direction
264 269 263 262 258 247 245 253 261 269 272 278 283 280 274 264 244 219 202 198 196 190 186 186 187 186 183 179 180 182 182 187 194 195 191 193 191 194 192 186 198 200 203 204
260 254 255 261 259 253 251 255 257 264 268 280 289 281 268 254 232 227 223 218 210 209 203 201 191 187 185 185 188 189 189 192 191 192 187 190 193 192 187 187 191 180 196 197
263 260 266 258 255 248 241 244 252 257 266 283 282 279 271 263 233 229 228 230 223 220 214 213 204 192 186 189 189 195 194 190 189 192 191 191 187 186 189 191 186 182 191 196
268 264 253 257 11 253 245 256 252 258 275 282 285 286 275 263 250 241 242 245 244 236 224 217 206 193 188 188 193 197 195 191 189 191 193 191 187 190 197 201 195 196 198 194
252 258 262 252 243 248 250 256 256 255 271 287 298 274 251 255 277 268 266 264 254 242 231 217 207 195 190 192 198 201 199 199 196 193 194 194 194 197 201 204 203 205 204 205
243 256 261 247 225 294 256 249 204 259 269 279 283 268 273 316 297 286 282 277 263 240 228 216 207 196 196 199 202 206 207 208 203 199 199 200 202 203 203 205 212 213 211 220
242 250 258 291 318 252 240 288 4 298 283 267 265 286 303 301 289 282 280 280 264 237 224 218 201 197 205 206 210 213 209 208 206 203 205 205 205 204 204 208 211 216 219 223
234 241 247 138 198 249 300 331 322 312 301 290 289 293 292 290 287 283 281 280 266 239 226 214 203 203 208 211 212 208 207 206 208 207 207 205 204 207 208 209 213 220 226 226
242 256 331 311 268 303 315 303 308 305 296 291 288 288 290 288 286 279 278 280 274 247 232 221 211 209 211 214 206 200 202 206 209 209 208 205 204 206 209 211 222 231 232 233
255 257 270 280 284 292 299 302 305 301 293 286 283 285 284 283 285 286 284 283 281 265 240 230 218 215 218 212 202 202 206 209 213 213 213 210 206 208 214 218 224 230 236 239
255 266 279 275 279 291 302 305 304 301 294 285 281 283 286 287 286 285 281 280 275 266 254 243 232 225 222 213 207 210 212 211 213 213 213 215 212 213 218 222 226 228 233 237
258 267 272 282 291 297 300 302 301 300 298 294 287 282 286 287 287 284 280 279 275 272 263 249 237 235 227 216 212 213 215 213 212 211 212 214 215 218 217 226 219 231 246 249
264 273 276 282 286 289 292 296 299 297 295 293 289 284 281 285 284 280 275 271 269 270 265 254 243 240 231 219 214 216 219 217 211 212 213 215 217 219 225 223 212 221 228 238
262 268 270 272 279 287 288 291 293 293 291 288 285 285 283 283 280 278 275 264 261 265 262 254 247 246 239 223 219 221 223 223 218 216 216 217 218 223 227 230 236 242 227 221
261 259 264 273 277 282 285 286 287 289 290 289 289 288 284 283 280 281 280 272 260 257 258 254 250 251 243 227 222 224 226 224 221 219 215 215 219 223 226 229 234 238 237 221
267 265 264 265 269 275 278 279 280 284 288 288 290 290 290 290 290 290 288 276 257 250 253 255 256 256 246 232 227 225 225 223 221 220 217 215 218 222 225 227 231 234 235 233
262 263 263 264 267 272 276 278 279 282 285 286 289 294 296 298 297 295 289 278 266 258 256 258 266 267 250 240 231 229 229 221 214 220 221 220 221 224 227 228 230 234 238 225
258 262 267 267 270 274 278 280 282 283 284 286 289 290 292 291 288 285 282 280 277 275 272 268 270 271 257 243 235 232 227 223 219 221 224 223 222 224 228 231 234 237 242 225
265 266 269 269 271 274 277 281 283 284 286 285 281 280 282 283 283 282 279 274 275 278 282 285 284 265 256 246 236 234 232 227 221 221 222 218 219 225 229 232 235 236 238 236
282 278 281 282 281 278 278 283 285 284 283 280 278 281 284 283 281 277 268 267 275 289 296 292 271 264 261 254 239 239 236 230 225 223 222 224 225 227 229 232 234 235 237 237
309 300 295 291 288 286 284 285 284 281 280 276 272 275 281 284 281 276 272 280 292 304 301 290 271 270 267 265 246 244 238 233 230 228 225 226 227 228 230 231 233 235 236 236
320 309 301 297 292 291 290 285 279 278 276 272 273 277 282 285 283 280 277 282 293 305 294 277 274 285 294 278 254 252 244 238 235 232 229 227 227 228 230 231 232 232 233 234
315 312 307 305 301 299 296 290 284 282 279 275 273 274 276 282 280 277 281 287 293 301 289 278 298 304 292 269 262 259 252 241 235 233 231 230 230 230 231 231 233 233 232 233
316 315 312 309 306 298 295 298 295 288 282 280 277 276 276 279 283 281 284 295 299 294 286 294 302 293 281 269 261 257 257 250 240 235 231 228 230 232 232 231 232 235 235 236
308 308 309 305 299 297 295 296 294 293 289 288 290 291 287 283 285 291 290 292 304 298 294 298 284 274 272 273 264 258 256 254 246 237 233 231 232 234 234 232 231 233 236 237
300 298 297 294 296 294 289 282 279 282 284 287 295 299 298 295 289 289 290 287 288 293 294 293 283 274 276 276 272 268 264 260 254 244 236 232 233 235 238 237 237 237 239 238
290 292 292 294 293 289 282 274 271 276 279 279 287 293 292 293 293 293 291 289 287 285 288 288 283 279 281 281 275 270 264 260 257 253 245 240 239 238 239 241 243 243 242 240
Height
1511 1512 1513 1513 1512 1512 1511 1507 1508 1503 1504 1504 1505 1508 1510 1511 1512 1513 1513 1514 1515 1516 1517 1518 1519 1520 1521 1522 1523 1525 1526 1528 1529 1531 1532 1533 1534 1535 1536 1537 1538 1539 1540 1540
1513 1512 1512 1511 1509 1509 1509 1507 1506 1506 1506 1505 1506 1507 1508 1509 1510 1511 1512 1512 1513 1514 1515 1516 1517 1518 1519 1520 1521 1523 1524 1525 1527 1529 1530 1531 1532 1533 1534 1535 1536 1537 1537 1538
1511 1509 1510 1508 1504 1505 1506 1505 1505 1505 1504 1505 1505 1506 1507 1507 1508 1509 1510 1510 1511 1512 1513 1514 1515 1516 1517 1518 1519 1520 1522 1523 1524 1526 1527 1528 1530 1531 1532 1533 1534 1534 1535 1535
1512 1512 1515 1504 1502 1503 1504 1504 1504 1504 1504 1506 1506 1506 1506 1506 1507 1507 1508 1508 1509 1510 1511 1512 1513 1514 1515 1516 1517 1518 1519 1520 1522 1523 1524 1526 1527 1528 1529 1530 1531 1532 1532 1533
1513 1511 1504 1502 1503 1504 1504 1502 1503 1503 1504 1505 1505 1504 1504 1504 1505 1506 1506 1506 1507 1508 1508 1509 1510 1511 1512 1513 1514 1515 1516 1517 1519 1520 1521 1523 1524 1525 1526 1528 1528 1529 1529 1530
1513 1513 1507 1501 1503 1504 1505 1502 1502 1503 1503 1504 1504 1501 1500 1502 1503 1503 1503 1504 1504 1505 1505 1506 1507 1508 1510 1511 1511 1512 1513 1515 1516 1517 1518 1520 1521 1522 1524 1525 1525 1526 1526 1527
1510 1508 1500 1502 1504 1505 1506 1501 1503 1502 1502 1503 1502 1501 1502 1501 1501 1500 1500 1500 1501 1501 1502 1503 1504 1505 1506 1508 1508 1509 1511 1512 1513 1514 1515 1517 1518 1519 1521 1522 1522 1523 1523 1524
1507 1507 1504 1503 1503 1503 1502 1502 1502 1501 1501 1502 1501 1500 1500 1499 1498 1498 1497 1497 1497 1497 1498 1499 1500 1501 1503 1504 1505 1506 1507 1509 1509 1511 1512 1513 1514 1516 1517 1518 1519 1519 1520 1520
1503 1503 1502 1503 1503 1503 1503 1502 1501 1501 1501 1500 1499 1498 1497 1497 1496 1495 1494 1494 1494 1494 1494 1495 1496 1498 1499 1501 1502 1503 1504 1505 1506 1508 1509 1509 1510 1512 1513 1514 1515 1516 1516 1516
1503 1501 1502 1503 1503 1502 1502 1501 1500 1499 1498 1497 1496 1495 1494 1493 1492 1492 1491 1491 1490 1490 1491 1492 1492 1494 1496 1497 1498 1499 1500 1501 1502 1504 1504 1505 1506 1507 1508 1510 1511 1512 1512 1512
1501 1500 1501 1501 1501 1500 1500 1499 1497 1496 1495 1494 1493 1492 1491 1490 1489 1488 1488 1487 1487 1487 1487 1488 1489 1490 1491 1493 1494 1495 1496 1497 1498 1499 1500 1501 1502 1503 1504 1505 1507 1507 1507 1508
1498 1499 1499 1499 1498 1498 1497 1496 1495 1493 1492 1491 1490 1489 1488 1487 1486 1485 1484 1484 1484 1484 1484 1485 1485 1486 1487 1488 1490 1491 1492 1493 1494 1495 1496 1497 1498 1499 1500 1501 1502 1502 1503 1503
1498 1497 1498 1497 1496 1495 1494 1493 1492 1490 1489 1487 1486 1486 1485 1484 1483 1482 1481 1480 1480 1480 1481 1481 1481 1482 1483 1484 1485 1487 1488 1489 1490 1490 1492 1493 1494 1495 1496 1497 1497 1497 1498 1498
1495 1495 1494 1493 1493 1492 1491 1489 1488 1487 1486 1485 1483 1482 1481 1480 1479 1478 1477 1477 1477 1477 1477 1477 1478 1478 1479 1480 1481 1482 1483 1484 1485 1486 1487 1488 1489 1490 1491 1492 1492 1492 1493 1493
1491 1491 1490 1489 1489 1488 1487 1486 1484 1483 1482 1481 1480 1479 1478 1476 1475 1474 1474 1473 1473 1473 1473 1474 1474 1474 1475 1476 1477 1478 1479 1479 1480 1481 1482 1483 1485 1486 1486 1487 1487 1488 1488 1488
1486 1486 1485 1485 1484 1483 1483 1482 1481 1479 1478 1477 1476 1475 1474 1473 1472 1471 1471 1470 1470 1470 1470 1470 1470 1470 1471 1472 1473 1473 1474 1475 1476 1476 1477 1479 1480 1481 1481 1482 1482 1482 1482 1483
1482 1481 1481 1480 1480 1479 1478 1478 1477 1476 1475 1474 1473 1472 1471 1470 1469 1468 1467 1467 1467 1467 1467 1467 1467 1467 1467 1468 1468 1469 1470 1470 1471 1472 1473 1474 1475 1476 1476 1477 1477 1477 1477 1478
1477 1477 1477 1476 1476 1475 1474 1474 1473 1472 1471 1470 1470 1469 1468 1467 1466 1465 1464 1464 1464 1463 1463 1463 1463 1463 1463 1464 1465 1465 1465 1466 1466 1467 1468 1469 1470 1471 1472 1472 1472 1472 1472 1473
1472 1472 1472 1472 1471 1471 1470 1469 1468 1468 1467 1467 1466 1465 1464 1463 1463 1462 1461 1460 1460 1459 1460 1460 1459 1459 1459 1460 1460 1461 1461 1461 1462 1462 1463 1464 1465 1466 1466 1467 1467 1467 1467 1467
1469 1469 1468 1468 1467 1467 1466 1465 1464 1464 1463 1463 1462 1461 1460 1460 1459 1458 1457 1457 1456 1456 1456 1456 1455 1455 1456 1456 1456 1456 1456 1457 1457 1458 1458 1459 1460 1461 1461 1462 1462 1462 1463 1462
1466 1465 1465 1464 1463 1462 1462 1461 1461 1460 1459 1459 1458 1458 1457 1456 1455 1454 1453 1453 1453 1452 1452 1451 1451 1451 1451 1451 1451 1452 1452 1452 1453 1453 1454 1454 1455 1455 1456 1456 1457 1457 1457 1457
1464 1463 1462 1461 1460 1459 1458 1457 1457 1456 1456 1455 1455 1454 1453 1452 1451 1451 1450 1450 1449 1448 1447 1447 1447 1447 1447 1447 1447 1447 1447 1448 1448 1448 1449 1450 1450 1450 1451 1451 1452 1452 1452 1452
1462 1460 1459 1458 1457 1456 1455 1454 1453 1453 1452 1451 1451 1450 1449 1449 1448 1447 1446 1445 1444 1443 1443 1443 1443 1443 1442 1442 1442 1442 1443 1443 1443 1444 1444 1444 1445 1445 1446 1446 1447 1447 1447 1447
1459 1458 1456 1455 1454 1453 1452 1451 1450 1449 1448 1448 1447 1447 1446 1445 1444 1444 1443 1442 1441 1440 1440 1439 1439 1439 1439 1438 1438 1438 1438 1438 1438 1439 1439 1439 1440 1440 1441 1441 1441 1441 1442 1442
1456 1455 1454 1452 1451 1450 1449 1448 1447 1446 1446 1445 1444 1443 1443 1442 1441 1440 1439 1438 1438 1437 1436 1436 1435 1435 1435 1434 1434 1434 1433 1433 1434 1434 1434 1434 1435 1435 1436 1436 1436 1437 1437 1437
1453 1452 1451 1450 1449 1448 1447 1446 1445 1444 1443 1442 1441 1440 1440 1439 1438 1437 1436 1435 1434 1434 1433 1432 1432 1431 1431 1430 1430 1430 1429 1429 1429 1429 1430 1430 1430 1431 1431 1431 1431 1431 1431 1431
1450 1449 1448 1447 1446 1445 1444 1443 1442 1441 1440 1439 1438 1437 1436 1435 1435 1434 1433 1432 1431 1430 1429 1429 1428 1428 1427 1427 1426 1426 1426 1425 1425 1425 1425 1425 1425 1425 1426 1426 1426 1426 1425 1425